^^
Saratoga-Weather Station Historical Data
Daily Summary for August 29, 2021 Units:  English    Metric   Both
Daily Weekly Monthly Yearly Custom
  High: Low: Average:
Temperature: 64.6 °F 56.8 °F 60.1 °F
Dew Point: 56.1 °F 52 °F 54.5 °F
Humidity: 92% 72% 82%
Wind Speed: 10.1mph 0mph 2.9mph
Wind Gust: 11mph - -
Wind- - West
Pressure: 30.1 in 30 in -
Precipitation: 0.01 in    
Historical Graphs
 
 
Tabular Data for August 29, 2021
Time Temperature Dew Point Pressure Wind Wind Speed Wind Gust Humidity Rainfall Rate (Hourly) solar
00:04 58.8 °F 55.2 °F 30.1 in WNW 2 mph 4 mph 88% 0 in 0 W/m2
00:09 58.8 °F 55.2 °F 30.1 in West 0.9 mph 7 mph 88% 0 in 0 W/m2
00:14 58.8 °F 55.2 °F 30.1 in WNW 2 mph 4 mph 88% 0 in 0 W/m2
00:19 58.8 °F 55.2 °F 30.1 in West 6 mph 6 mph 88% 0 in 0 W/m2
00:24 58.8 °F 55.2 °F 30.1 in WNW 0.9 mph 3 mph 88% 0 in 0 W/m2
00:29 58.8 °F 55.2 °F 30.1 in WNW 4.9 mph 9 mph 88% 0 in 0 W/m2
00:34 58.8 °F 55.2 °F 30.1 in WSW 4 mph 7 mph 88% 0 in 0 W/m2
00:39 58.8 °F 55.2 °F 30.1 in West 0.9 mph 7 mph 88% 0 in 0 W/m2
00:44 59 °F 55.2 °F 30.1 in West 2 mph 2 mph 87% 0 in 0 W/m2
00:49 59 °F 55.2 °F 30.1 in West 0.9 mph 2 mph 87% 0 in 0 W/m2
00:54 58.8 °F 55 °F 30.1 in West 0.9 mph 2 mph 87% 0 in 0 W/m2
00:59 58.8 °F 55.2 °F 30.1 in West 2 mph 2 mph 88% 0 in 0 W/m2
01:04 58.8 °F 55.2 °F 30.1 in West 2.9 mph 4 mph 88% 0 in 0 W/m2
01:09 59.2 °F 55.4 °F 30.1 in Calm   1 mph 87% 0 in 0 W/m2
01:14 59.4 °F 55.4 °F 30.1 in NW 2 mph 4 mph 87% 0 in 0 W/m2
01:19 59.5 °F 55.4 °F 30.1 in North 4 mph 7 mph 86% 0 in 0 W/m2
01:24 59.9 °F 55.4 °F 30.1 in NW 0.9 mph 3 mph 85% 0 in 0 W/m2
01:29 60.1 °F 55.6 °F 30.1 in WSW 2 mph 3 mph 85% 0 in 0 W/m2
01:34 60.1 °F 55.2 °F 30.1 in ENE 0.9 mph 4 mph 84% 0 in 0 W/m2
01:39 60.1 °F 55.2 °F 30.1 in ENE 2.9 mph 3 mph 84% 0 in 0 W/m2
01:44 60.1 °F 55.2 °F 30.1 in North 2.9 mph 6 mph 84% 0 in 0 W/m2
01:49 59.7 °F 54.9 °F 30.1 in SW 2 mph 4 mph 84% 0 in 0 W/m2
01:54 59.7 °F 54.9 °F 30.1 in WNW 2.9 mph 4 mph 84% 0 in 0 W/m2
01:59 59.5 °F 54.7 °F 30.1 in North 4 mph 5 mph 84% 0 in 0 W/m2
02:04 59.5 °F 54.7 °F 30.1 in North 2 mph 6 mph 84% 0 in 0 W/m2
02:09 59.4 °F 54.5 °F 30.1 in West 2.9 mph 5 mph 84% 0 in 0 W/m2
02:14 59.4 °F 54.5 °F 30.1 in NW 0.9 mph 4 mph 84% 0 in 0 W/m2
02:19 59.4 °F 54.5 °F 30.1 in WNW 4 mph 7 mph 84% 0 in 0 W/m2
02:24 59.2 °F 54.3 °F 30.1 in ENE 0.9 mph 4 mph 84% 0 in 0 W/m2
02:29 59.2 °F 54.3 °F 30.1 in WNW 2.9 mph 5 mph 84% 0 in 0 W/m2
02:34 59.2 °F 54.3 °F 30.1 in NNE 0.9 mph 2 mph 84% 0 in 0 W/m2
02:39 59.2 °F 54.3 °F 30.1 in NNW 0.9 mph 4 mph 84% 0 in 0 W/m2
02:44 59.2 °F 54.3 °F 30.1 in NW 2 mph 3 mph 84% 0 in 0 W/m2
02:49 59.2 °F 54 °F 30.1 in SSW 0.9 mph 4 mph 83% 0 in 0 W/m2
02:54 59.4 °F 53.8 °F 30.1 in WSW 2 mph 3 mph 82% 0 in 0 W/m2
02:59 59.2 °F 53.6 °F 30.1 in North 2 mph 7 mph 82% 0 in 0 W/m2
03:04 59.2 °F 53.6 °F 30.1 in Calm   5 mph 82% 0 in 0 W/m2
03:09 59 °F 53.6 °F 30.1 in WNW 2 mph 4 mph 82% 0 in 0 W/m2
03:14 58.8 °F 53.6 °F 30.1 in North 0.9 mph 4 mph 83% 0 in 0 W/m2
03:19 58.8 °F 53.6 °F 30.1 in West 2 mph 3 mph 83% 0 in 0 W/m2
03:24 58.5 °F 53.2 °F 30.1 in West 0.9 mph 3 mph 83% 0 in 0 W/m2
03:29 58.3 °F 53.4 °F 30.1 in Calm   1 mph 84% 0 in 0 W/m2
03:34 57.7 °F 52.9 °F 30.1 in West 0.9 mph 3 mph 84% 0 in 0 W/m2
03:39 57.6 °F 53.1 °F 30.1 in Calm   3 mph 85% 0 in 0 W/m2
03:44 57.4 °F 53.2 °F 30.1 in WSW 2.9 mph 4 mph 86% 0 in 0 W/m2
03:49 57.2 °F 53.1 °F 30.1 in WSW 2 mph 4 mph 86% 0 in 0 W/m2
03:54 57 °F 52.9 °F 30.1 in West 4 mph 5 mph 86% 0 in 0 W/m2
03:59 57 °F 53.2 °F 30.1 in WSW 6.9 mph 8 mph 87% 0 in 0 W/m2
04:04 57 °F 53.2 °F 30.1 in West 2 mph 4 mph 87% 0 in 0 W/m2
04:09 56.8 °F 53.1 °F 30.1 in WNW 2 mph 7 mph 87% 0 in 0 W/m2
04:14 56.8 °F 53.1 °F 30.1 in West 2.9 mph 9 mph 87% 0 in 0 W/m2
04:19 56.8 °F 53.1 °F 30.1 in West 6 mph 6 mph 87% 0 in 0 W/m2
04:24 56.8 °F 53.2 °F 30.1 in West 2.9 mph 6 mph 88% 0 in 0 W/m2
04:29 56.8 °F 53.2 °F 30.1 in West 2 mph 4 mph 88% 0 in 0 W/m2
04:34 56.8 °F 53.2 °F 30.1 in West 4 mph 4 mph 88% 0 in 0 W/m2
04:39 56.8 °F 53.2 °F 30.1 in West 2.9 mph 6 mph 88% 0 in 0 W/m2
04:45 57 °F 53.4 °F 30.1 in West 0.9 mph 2 mph 88% 0 in 0 W/m2
04:50 57 °F 53.2 °F 30.1 in West 2 mph 7 mph 87% 0 in 0 W/m2
04:55 57 °F 53.2 °F 30.1 in Calm   2 mph 87% 0 in 0 W/m2
05:00 57.2 °F 53.4 °F 30.1 in WSW 2.9 mph 7 mph 87% 0 in 0 W/m2
05:05 57.2 °F 53.4 °F 30.1 in Calm   1 mph 87% 0 in 0 W/m2
05:10 57.2 °F 53.4 °F 30.1 in West 2.9 mph 3 mph 87% 0 in 0 W/m2
05:15 57.2 °F 53.4 °F 30.1 in West 4 mph 4 mph 87% 0 in 0 W/m2
05:20 57.2 °F 53.1 °F 30.1 in West 2 mph 4 mph 86% 0 in 0 W/m2
05:25 57.2 °F 53.1 °F 30.1 in WSW 2.9 mph 3 mph 86% 0 in 0 W/m2
05:30 57.4 °F 53.2 °F 30.1 in WNW 2 mph 6 mph 86% 0 in 0 W/m2
05:35 57.4 °F 53.2 °F 30.1 in West 2 mph 6 mph 86% 0 in 0 W/m2
05:40 57.4 °F 53.2 °F 30.1 in West 4 mph 7 mph 86% 0 in 0 W/m2
05:45 57.4 °F 53.2 °F 30.1 in WSW 2.9 mph 6 mph 86% 0 in 0 W/m2
05:50 57.4 °F 53.2 °F 30.1 in WNW 2.9 mph 4 mph 86% 0 in 0 W/m2
05:55 57.4 °F 53.2 °F 30.1 in West 2 mph 7 mph 86% 0 in 0 W/m2
06:00 57.4 °F 53.2 °F 30.1 in WNW 4 mph 7 mph 86% 0 in 0 W/m2
06:05 57.6 °F 53.1 °F 30.1 in West 2 mph 3 mph 85% 0 in 0 W/m2
06:10 57.4 °F 52.9 °F 30.1 in Calm   5 mph 85% 0 in 0 W/m2
06:15 57.4 °F 52.9 °F 30.1 in WNW 2 mph 2 mph 85% 0 in 0 W/m2
06:20 57.6 °F 52.7 °F 30.1 in NW 2 mph 4 mph 84% 0 in 0 W/m2
06:25 57.7 °F 53.2 °F 30.1 in Calm   3 mph 85% 0 in 0 W/m2
06:30 57.6 °F 52.7 °F 30.1 in West 2 mph 3 mph 84% 0 in 0 W/m2
06:35 57.6 °F 52.7 °F 30.1 in WNW 0.9 mph 8 mph 84% 0 in 0 W/m2
06:40 57.6 °F 52.7 °F 30.1 in WNW 2 mph 7 mph 84% 0 in 0 W/m2
06:45 57.7 °F 52.9 °F 30.1 in NNW 2 mph 3 mph 84% 0 in 0 W/m2
06:50 57.7 °F 52.9 °F 30.1 in NW 0.9 mph 4 mph 84% 0 in 0 W/m2
06:55 57.6 °F 52.7 °F 30.1 in WSW 2 mph 4 mph 84% 0 in 0 W/m2
07:00 57.6 °F 52.7 °F 30.1 in WSW 2 mph 3 mph 84% 0 in 0 W/m2
07:05 57.6 °F 52.7 °F 30.1 in West 2 mph 7 mph 84% 0 in 5 W/m2
07:10 57.6 °F 52.7 °F 30.1 in West 2 mph 3 mph 84% 0 in 7 W/m2
07:15 57.6 °F 52.7 °F 30.1 in Calm   3 mph 84% 0 in 11 W/m2
07:20 57.6 °F 52.7 °F 30.1 in ESE 2 mph 4 mph 84% 0 in 12 W/m2
07:25 57.6 °F 52.5 °F 30.1 in Calm   2 mph 83% 0 in 16 W/m2
07:30 57.7 °F 52.7 °F 30.1 in WNW 0.9 mph 2 mph 83% 0 in 23 W/m2
07:35 57.7 °F 52.3 °F 30.1 in East 0.9 mph 4 mph 82% 0 in 28 W/m2
07:40 57.9 °F 52.5 °F 30.1 in ENE 0.9 mph 3 mph 82% 0 in 35 W/m2
07:45 58.1 °F 52 °F 30.1 in NNW 0.9 mph 3 mph 80% 0 in 42 W/m2
07:50 58.5 °F 52.3 °F 30.1 in NNW 2.9 mph 3 mph 80% 0 in 62 W/m2
07:55 58.6 °F 52.2 °F 30.1 in NE 2 mph 6 mph 79% 0 in 69 W/m2
08:00 59 °F 52.2 °F 30.1 in East 0.9 mph 6 mph 78% 0 in 69 W/m2
08:05 59.2 °F 52 °F 30.1 in WNW 2 mph 8 mph 77% 0 in 76 W/m2
08:10 59.4 °F 52.5 °F 30.1 in Calm   1 mph 78% 0 in 120 W/m2
08:15 59.5 °F 52.3 °F 30.1 in NNW 2 mph 4 mph 77% 0 in 114 W/m2
08:20 60.1 °F 52.9 °F 30.1 in NNW 4 mph 6 mph 77% 0 in 139 W/m2
08:25 60.3 °F 52.3 °F 30.1 in West 2.9 mph 7 mph 75% 0 in 199 W/m2
08:30 60.4 °F 52.5 °F 30.1 in East 0.9 mph 5 mph 75% 0 in 257 W/m2
08:35 60.8 °F 52.9 °F 30.1 in WSW 4.9 mph 7 mph 75% 0 in 139 W/m2
08:40 61 °F 53.1 °F 30.1 in WNW 4 mph 4 mph 75% 0 in 113 W/m2
08:45 60.6 °F 53.1 °F 30.1 in WNW 0.9 mph 7 mph 76% 0 in 107 W/m2
08:50 60.4 °F 53.2 °F 30.1 in WNW 4 mph 7 mph 77% 0 in 123 W/m2
08:55 60.1 °F 53.2 °F 30.1 in West 2 mph 4 mph 78% 0 in 123 W/m2
09:00 59.9 °F 53.1 °F 30.1 in WSW 4 mph 7 mph 78% 0 in 98 W/m2
09:05 59.7 °F 53.2 °F 30.1 in WNW 4 mph 6 mph 79% 0 in 77 W/m2
09:10 59.7 °F 52.9 °F 30.1 in West 2.9 mph 4 mph 78% 0 in 105 W/m2
09:15 59.7 °F 52.9 °F 30.1 in WNW 2.9 mph 4 mph 78% 0 in 118 W/m2
09:20 59.7 °F 52.9 °F 30.1 in West 4 mph 5 mph 78% 0 in 121 W/m2
09:25 59.9 °F 53.1 °F 30.1 in WNW 4 mph 7 mph 78% 0 in 128 W/m2
09:30 60.1 °F 53.2 °F 30.1 in NW 2.9 mph 4 mph 78% 0 in 104 W/m2
09:35 60.1 °F 53.2 °F 30.1 in WSW 2 mph 8 mph 78% 0 in 90 W/m2
09:40 60.1 °F 53.6 °F 30.1 in NNW 2.9 mph 7 mph 79% 0 in 102 W/m2
09:45 60.1 °F 53.2 °F 30.1 in West 2 mph 8 mph 78% 0 in 97 W/m2
09:50 60.1 °F 53.2 °F 30.1 in WNW 4.9 mph 5 mph 78% 0 in 67 W/m2
09:55 59.9 °F 53.1 °F 30.1 in West 2.9 mph 7 mph 78% 0 in 60 W/m2
10:00 60.1 °F 53.2 °F 30.1 in NW 0.9 mph 5 mph 78% 0 in 74 W/m2
10:05 60.1 °F 53.2 °F 30.1 in West 2 mph 5 mph 78% 0 in 128 W/m2
10:10 60.3 °F 53.4 °F 30.1 in West 2 mph 4 mph 78% 0 in 95 W/m2
10:15 60.3 °F 53.4 °F 30.1 in WNW 4 mph 7 mph 78% 0 in 120 W/m2
10:20 60.4 °F 53.6 °F 30.1 in WNW 4.9 mph 9 mph 78% 0 in 130 W/m2
10:25 60.6 °F 53.8 °F 30.1 in WSW 4 mph 9 mph 78% 0 in 202 W/m2
10:30 60.8 °F 54 °F 30.1 in NW 2.9 mph 4 mph 78% 0 in 202 W/m2
10:35 61 °F 53.8 °F 30.1 in WNW 2 mph 9 mph 77% 0 in 163 W/m2
10:40 61.2 °F 54 °F 30.1 in West 6.9 mph 8 mph 77% 0 in 146 W/m2
10:45 61.2 °F 54 °F 30.1 in NW 6.9 mph 7 mph 77% 0 in 105 W/m2
10:50 61.2 °F 54 °F 30.1 in WSW 2 mph 5 mph 77% 0 in 120 W/m2
10:55 61.2 °F 54 °F 30.1 in West 0.9 mph 4 mph 77% 0 in 130 W/m2
11:01 61.3 °F 54.1 °F 30.1 in North 4.9 mph 8 mph 77% 0 in 134 W/m2
11:06 61.3 °F 53.8 °F 30.1 in West 2.9 mph 8 mph 76% 0 in 125 W/m2
11:11 61.5 °F 54 °F 30.1 in West 2.9 mph 3 mph 76% 0 in 125 W/m2
11:16 61.5 °F 54.3 °F 30.1 in NW 2 mph 8 mph 77% 0 in 100 W/m2
11:21 61.5 °F 54 °F 30.1 in West 2.9 mph 8 mph 76% 0 in 76 W/m2
11:26 61.5 °F 54 °F 30.1 in West 2.9 mph 11 mph 76% 0 in 93 W/m2
11:31 61.5 °F 54 °F 30.1 in SSW 2 mph 4 mph 76% 0 in 91 W/m2
11:36 61.5 °F 54.3 °F 30.1 in WNW 2.9 mph 11 mph 77% 0 in 104 W/m2
11:41 61.5 °F 54 °F 30.1 in West 2.9 mph 7 mph 76% 0 in 146 W/m2
11:46 61.7 °F 54.1 °F 30.1 in WNW 4 mph 9 mph 76% 0 in 165 W/m2
11:51 61.7 °F 54.1 °F 30.1 in NW 4.9 mph 8 mph 76% 0 in 190 W/m2
11:56 61.9 °F 53.8 °F 30.1 in West 6.9 mph 7 mph 75% 0 in 236 W/m2
12:01 62.1 °F 54.3 °F 30.1 in West 2.9 mph 5 mph 76% 0 in 258 W/m2
12:06 62.2 °F 54.1 °F 30.1 in WNW 2 mph 8 mph 75% 0 in 294 W/m2
12:11 62.4 °F 54.3 °F 30.1 in NW 2 mph 7 mph 75% 0 in 285 W/m2
12:16 62.6 °F 54.5 °F 30.1 in WNW 2.9 mph 8 mph 75% 0 in 251 W/m2
12:21 62.8 °F 54.3 °F 30.1 in NW 2 mph 4 mph 74% 0 in 141 W/m2
12:26 62.6 °F 54.1 °F 30.1 in WNW 2 mph 7 mph 74% 0 in 113 W/m2
12:31 62.4 °F 54.3 °F 30.1 in West 2 mph 4 mph 75% 0 in 139 W/m2
12:36 62.4 °F 54.7 °F 30.1 in NW 2.9 mph 7 mph 76% 0 in 135 W/m2
12:41 62.4 °F 54.7 °F 30.1 in West 2 mph 3 mph 76% 0 in 179 W/m2
12:46 63 °F 54.9 °F 30.1 in NW 2.9 mph 5 mph 75% 0 in 260 W/m2
12:51 63.3 °F 54.9 °F 30.1 in West 2.9 mph 4 mph 74% 0 in 287 W/m2
12:56 63.7 °F 55.2 °F 30.1 in WNW 2.9 mph 4 mph 74% 0 in 192 W/m2
13:01 63.7 °F 55.2 °F 30.1 in NW 4.9 mph 9 mph 74% 0 in 163 W/m2
13:06 63.7 °F 54.9 °F 30.1 in West 2.9 mph 7 mph 73% 0 in 134 W/m2
13:11 63.3 °F 54.9 °F 30.1 in West 4 mph 9 mph 74% 0 in 120 W/m2
13:16 63.3 °F 54.9 °F 30.1 in WNW 4 mph 8 mph 74% 0 in 116 W/m2
13:21 63.1 °F 54.7 °F 30.1 in West 2.9 mph 9 mph 74% 0 in 111 W/m2
13:26 63.1 °F 54.7 °F 30.1 in West 4 mph 7 mph 74% 0 in 98 W/m2
13:31 63.1 °F 54.7 °F 30.1 in WSW 4.9 mph 9 mph 74% 0 in 127 W/m2
13:36 63.1 °F 55 °F 30.1 in NW 4.9 mph 10 mph 75% 0 in 151 W/m2
13:41 63.3 °F 55.2 °F 30.1 in WNW 2.9 mph 7 mph 75% 0 in 158 W/m2
13:46 63.3 °F 54.9 °F 30.1 in West 4 mph 10 mph 74% 0 in 142 W/m2
13:51 63.5 °F 55 °F 30.1 in NNW 2.9 mph 8 mph 74% 0 in 148 W/m2
13:56 63.7 °F 55.6 °F 30.1 in West 6 mph 9 mph 75% 0 in 139 W/m2
14:01 63.7 °F 55.6 °F 30.1 in NW 2.9 mph 7 mph 75% 0 in 174 W/m2
14:06 63.5 °F 55.4 °F 30.1 in West 6.9 mph 7 mph 75% 0 in 190 W/m2
14:11 63.3 °F 55.6 °F 30.1 in WNW 4 mph 7 mph 76% 0 in 183 W/m2
14:16 63.1 °F 55 °F 30.1 in WSW 4 mph 9 mph 75% 0 in 195 W/m2
14:21 63.1 °F 55 °F 30.1 in NW 4.9 mph 9 mph 75% 0 in 218 W/m2
14:26 63.1 °F 54.7 °F 30.1 in WNW 2 mph 4 mph 74% 0 in 237 W/m2
14:31 63.7 °F 55.2 °F 30.1 in NW 2.9 mph 5 mph 74% 0 in 281 W/m2
14:36 63.9 °F 55 °F 30.1 in North 2.9 mph 7 mph 73% 0 in 250 W/m2
14:41 64 °F 55.2 °F 30.1 in NNW 4 mph 7 mph 73% 0 in 221 W/m2
14:46 64 °F 55.2 °F 30.1 in NE 0.9 mph 3 mph 73% 0 in 183 W/m2
14:51 64 °F 55.6 °F 30.1 in WNW 2 mph 5 mph 74% 0 in 216 W/m2
14:56 64 °F 55.2 °F 30.1 in WSW 2 mph 4 mph 73% 0 in 204 W/m2
15:01 64 °F 55.2 °F 30.1 in NW 2 mph 4 mph 73% 0 in 204 W/m2
15:06 64.2 °F 55.8 °F 30.1 in NNW 2 mph 5 mph 74% 0 in 207 W/m2
15:11 64.6 °F 55.4 °F 30 in ENE 0.9 mph 4 mph 72% 0 in 105 W/m2
15:16 64.6 °F 55.8 °F 30 in East 0.9 mph 6 mph 73% 0 in 37 W/m2
15:21 64.2 °F 55.4 °F 30.1 in WSW 10.1 mph 10 mph 73% 0 in 25 W/m2
15:26 64 °F 54.9 °F 30.1 in NW 2 mph 6 mph 72% 0 in 35 W/m2
15:31 64 °F 55.2 °F 30.1 in West 2 mph 3 mph 73% 0 in 49 W/m2
15:36 63.9 °F 55 °F 30.1 in NW 2 mph 4 mph 73% 0 in 58 W/m2
15:41 63.7 °F 54.9 °F 30.1 in North 4 mph 5 mph 73% 0 in 56 W/m2
15:46 63.3 °F 54.9 °F 30.1 in WNW 2.9 mph 5 mph 74% 0 in 67 W/m2
15:51 63.1 °F 54.7 °F 30.1 in NW 2.9 mph 7 mph 74% 0 in 72 W/m2
15:56 63.1 °F 54.7 °F 30.1 in NNE 0.9 mph 4 mph 74% 0 in 84 W/m2
16:01 63.1 °F 55 °F 30.1 in NW 4 mph 7 mph 75% 0 in 88 W/m2
16:06 63.1 °F 55.4 °F 30.1 in West 6 mph 8 mph 76% 0 in 132 W/m2
16:11 63.1 °F 55 °F 30.1 in Calm   5 mph 75% 0 in 148 W/m2
16:16 63.1 °F 55 °F 30.1 in WNW 2.9 mph 7 mph 75% 0 in 250 W/m2
16:21 63.5 °F 55.4 °F 30 in West 4 mph 5 mph 75% 0 in 302 W/m2
16:26 63.9 °F 55.8 °F 30 in West 4 mph 6 mph 75% 0 in 202 W/m2
16:32 63.9 °F 55 °F 30 in WNW 4 mph 10 mph 73% 0 in 192 W/m2
16:37 63.9 °F 56.1 °F 30.1 in WNW 4.9 mph 11 mph 76% 0 in 264 W/m2
16:42 63.7 °F 55.2 °F 30.1 in West 2.9 mph 6 mph 74% 0 in 255 W/m2
16:47 63.7 °F 55.6 °F 30.1 in West 2.9 mph 8 mph 75% 0 in 236 W/m2
16:52 63.5 °F 55.4 °F 30.1 in NNW 6 mph 8 mph 75% 0 in 197 W/m2
16:57 63.3 °F 55.2 °F 30.1 in North 4 mph 7 mph 75% 0 in 113 W/m2
17:02 63.1 °F 55 °F 30.1 in North 2.9 mph 10 mph 75% 0 in 77 W/m2
17:07 63 °F 55.6 °F 30.1 in WNW 4 mph 9 mph 77% 0 in 118 W/m2
17:12 62.8 °F 55.4 °F 30 in West 2.9 mph 10 mph 77% 0 in 121 W/m2
17:17 62.4 °F 55.4 °F 30 in NW 2.9 mph 6 mph 78% 0 in 118 W/m2
17:22 62.2 °F 55.2 °F 30 in WNW 2.9 mph 9 mph 78% 0 in 111 W/m2
17:27 62.1 °F 55.4 °F 30 in WNW 4 mph 6 mph 79% 0 in 90 W/m2
17:32 61.9 °F 55.2 °F 30 in WNW 4.9 mph 5 mph 79% 0 in 72 W/m2
17:37 61.9 °F 55.6 °F 30 in NW 2 mph 3 mph 80% 0 in 102 W/m2
17:42 62.1 °F 55.8 °F 30 in WNW 8.1 mph 8 mph 80% 0 in 114 W/m2
17:47 61.9 °F 55.6 °F 30 in WSW 2.9 mph 10 mph 80% 0 in 97 W/m2
17:52 61.7 °F 55.4 °F 30 in WNW 2.9 mph 7 mph 80% 0 in 93 W/m2
17:57 61.5 °F 55.6 °F 30 in West 4 mph 9 mph 81% 0 in 84 W/m2
18:02 61.3 °F 55 °F 30 in SW 6 mph 7 mph 80% 0 in 69 W/m2
18:07 61.3 °F 55.4 °F 30 in WSW 4 mph 5 mph 81% 0 in 63 W/m2
18:12 61.3 °F 55.4 °F 30 in West 6 mph 6 mph 81% 0 in 60 W/m2
18:17 61.3 °F 55.4 °F 30 in NW 4 mph 8 mph 81% 0 in 54 W/m2
18:22 61.2 °F 55.2 °F 30 in WNW 2.9 mph 7 mph 81% 0 in 46 W/m2
18:27 61.2 °F 55.6 °F 30 in WNW 2.9 mph 8 mph 82% 0 in 40 W/m2
18:32 61.2 °F 55.6 °F 30 in WSW 6.9 mph 8 mph 82% 0 in 35 W/m2
18:37 61 °F 55.4 °F 30 in West 6 mph 6 mph 82% 0 in 39 W/m2
18:42 61 °F 55.4 °F 30 in WNW 4.9 mph 8 mph 82% 0 in 40 W/m2
18:47 61 °F 55.4 °F 30 in WNW 2.9 mph 4 mph 82% 0 in 37 W/m2
18:52 61 °F 55.4 °F 30 in WNW 6.9 mph 9 mph 82% 0 in 39 W/m2
18:57 61 °F 55.4 °F 30 in NNW 2.9 mph 8 mph 82% 0 in 44 W/m2
19:02 61 °F 55.4 °F 30 in NW 2.9 mph 9 mph 82% 0 in 40 W/m2
19:07 61 °F 55.4 °F 30 in WNW 2 mph 6 mph 82% 0 in 39 W/m2
19:12 61 °F 55.4 °F 30 in WNW 2.9 mph 4 mph 82% 0 in 28 W/m2
19:17 61 °F 55.4 °F 30 in WNW 2.9 mph 5 mph 82% 0 in 16 W/m2
19:22 60.8 °F 55.2 °F 30 in NW 0.9 mph 5 mph 82% 0 in 11 W/m2
19:27 61 °F 55.4 °F 30 in West 2 mph 5 mph 82% 0 in 9 W/m2
19:32 60.8 °F 55.2 °F 30 in WNW 2 mph 6 mph 82% 0 in 9 W/m2
19:37 60.8 °F 55.2 °F 30 in NW 4 mph 7 mph 82% 0 in 9 W/m2
19:42 60.8 °F 55.2 °F 30 in West 6.9 mph 8 mph 82% 0 in 7 W/m2
19:47 60.8 °F 55.2 °F 30 in West 4 mph 9 mph 82% 0 in 7 W/m2
19:52 60.6 °F 55 °F 30 in West 2.9 mph 4 mph 82% 0 in 5 W/m2
19:57 60.6 °F 55 °F 30 in WNW 4 mph 9 mph 82% 0 in 0 W/m2
20:02 60.6 °F 55 °F 30 in West 2 mph 6 mph 82% 0 in 0 W/m2
20:07 60.6 °F 55 °F 30 in West 4 mph 8 mph 82% 0 in 0 W/m2
20:12 60.4 °F 54.9 °F 30 in WNW 2.9 mph 7 mph 82% 0 in 0 W/m2
20:17 60.4 °F 55.2 °F 30 in West 6 mph 8 mph 83% 0 in 0 W/m2
20:22 60.4 °F 55.2 °F 30 in WNW 2 mph 3 mph 83% 0 in 0 W/m2
20:27 60.3 °F 55.4 °F 30 in West 2 mph 8 mph 84% 0 in 0 W/m2
20:32 60.1 °F 55.6 °F 30 in West 2 mph 3 mph 85% 0 in 0 W/m2
20:37 59.7 °F 55.6 °F 30 in West 4 mph 7 mph 86% 0 in 0 W/m2
20:42 59.5 °F 55.4 °F 30 in WNW 4 mph 7 mph 86% 0 in 0 W/m2
20:47 59.4 °F 55.8 °F 30 in WSW 2.9 mph 4 mph 88% 0 in 0 W/m2
20:52 59 °F 55.8 °F 30 in West 2.9 mph 6 mph 89% 0 in 0 W/m2
20:57 58.6 °F 55.4 °F 30 in West 4 mph 7 mph 89% 0 in 0 W/m2
21:02 58.5 °F 55.6 °F 30 in WNW 2.9 mph 4 mph 90% 0 in 0 W/m2
21:07 58.3 °F 55.6 °F 30 in WNW 2.9 mph 7 mph 91% 0 in 0 W/m2
21:12 58.3 °F 55.6 °F 30 in West 4 mph 5 mph 91% 0.01 in 0 W/m2
21:17 58.3 °F 55.6 °F 30 in West 6 mph 7 mph 91% 0.01 in 0 W/m2
21:22 58.1 °F 55.4 °F 30 in WNW 2.9 mph 9 mph 91% 0.01 in 0 W/m2
21:27 58.3 °F 55.6 °F 30 in West 4 mph 9 mph 91% 0.01 in 0 W/m2
21:32 58.3 °F 55.6 °F 30 in West 4 mph 10 mph 91% 0.01 in 0 W/m2
21:37 58.3 °F 55.6 °F 30 in West 6.9 mph 10 mph 91% 0.01 in 0 W/m2
21:42 58.3 °F 55.6 °F 30 in WSW 2.9 mph 9 mph 91% 0.01 in 0 W/m2
21:47 58.3 °F 55.6 °F 30 in WNW 6 mph 7 mph 91% 0.01 in 0 W/m2
21:52 58.3 °F 55.6 °F 30 in WSW 4.9 mph 7 mph 91% 0.01 in 0 W/m2
21:57 58.3 °F 55.6 °F 30 in West 6 mph 9 mph 91% 0.01 in 0 W/m2
22:02 58.1 °F 55.4 °F 30 in WSW 2.9 mph 4 mph 91% 0.01 in 0 W/m2
22:07 58.1 °F 55.8 °F 30 in West 2.9 mph 6 mph 92% 0.01 in 0 W/m2
22:12 58.3 °F 55.9 °F 30 in NW 2 mph 7 mph 92% 0 in 0 W/m2
22:17 58.3 °F 55.9 °F 30 in West 2.9 mph 5 mph 92% 0 in 0 W/m2
22:22 58.3 °F 55.9 °F 30 in West 2 mph 5 mph 92% 0 in 0 W/m2
22:27 58.3 °F 55.9 °F 30 in West 4 mph 7 mph 92% 0 in 0 W/m2
22:32 58.3 °F 55.9 °F 30 in West 2 mph 4 mph 92% 0 in 0 W/m2
22:37 58.3 °F 55.9 °F 30 in West 2 mph 7 mph 92% 0 in 0 W/m2
22:42 58.3 °F 55.9 °F 30 in West 2.9 mph 6 mph 92% 0 in 0 W/m2
22:47 58.3 °F 55.9 °F 30 in West 2.9 mph 7 mph 92% 0 in 0 W/m2
22:52 58.3 °F 55.9 °F 30 in WNW 6 mph 8 mph 92% 0 in 0 W/m2
22:57 58.3 °F 55.9 °F 30 in West 6.9 mph 7 mph 92% 0 in 0 W/m2
23:02 58.3 °F 55.9 °F 30 in WNW 2.9 mph 7 mph 92% 0 in 0 W/m2
23:07 58.3 °F 55.9 °F 30 in WNW 2.9 mph 4 mph 92% 0 in 0 W/m2
23:12 58.3 °F 55.9 °F 30 in West 2.9 mph 4 mph 92% 0 in 0 W/m2
23:17 58.3 °F 55.9 °F 30 in West 4 mph 6 mph 92% 0 in 0 W/m2
23:22 58.5 °F 56.1 °F 30 in West 2.9 mph 8 mph 92% 0 in 0 W/m2
23:27 58.5 °F 56.1 °F 30 in West 4 mph 7 mph 92% 0 in 0 W/m2
23:32 58.5 °F 56.1 °F 30 in West 4 mph 7 mph 92% 0 in 0 W/m2
23:37 58.5 °F 55.8 °F 30 in WSW 2.9 mph 5 mph 91% 0 in 0 W/m2
23:42 58.5 °F 56.1 °F 30 in West 2 mph 6 mph 92% 0 in 0 W/m2
23:47 58.5 °F 56.1 °F 30 in WNW 4 mph 6 mph 92% 0 in 0 W/m2
23:52 58.5 °F 56.1 °F 30 in West 4 mph 6 mph 92% 0 in 0 W/m2
23:57 58.5 °F 56.1 °F 30 in WNW 2 mph 3 mph 92% 0 in 0 W/m2
Juneau County Weather
Compliments of Weather Underground - 4 mb